Salisbury, MD

11:18 AM EDT on September 26, 2017 (GMT -0400)
Salisbury-Ocean City Wicomico Regional

Weather History for KSBY - March, 2013

Change the Weather History Date:

Wednesday, March 27, 2013

  Actual Average Record
Temperature  
Mean Temperature 46 °F 48 °F  
Max Temperature 54 °F 59 °F 85 °F (1921)
Min Temperature 38 °F 38 °F 20 °F (1951)
Degree Days  
Heating Degree Days 19 17  
Month to date heating degree days 620 565  
Since 1 July heating degree days 3398 3870  
Cooling Degree Days 0 0  
Month to date cooling degree days 0 0  
Year to date cooling degree days 0 0  
Moisture  
Dew Point 28 °F    
Average Humidity 51    
Maximum Humidity 70    
Minimum Humidity 32    
Precipitation  
Precipitation T in 0.15 in 1.48 in (1983)
Month to date precipitation 4.60 3.83  
Year to date precipitation 11.30 10.79  
Snow  
Snow 0.00 in 0.00 in T in (1930)
Month to date snowfall T 0.8  
Since 1 July snowfall 2.8 9.1  
Snow Depth 0.00 in    
Sea Level Pressure  
Sea Level Pressure 30.02 in    
Wind  
Wind Speed 9 mph (West)    
Max Wind Speed 25 mph    
Max Gust Speed 33 mph    
Visibility 10 miles    
Events      
T = Trace of Precipitation, MM = Missing Value Source: NWS Daily Summary

Daily Weather History Graph

Daily Weather History Graph

Search for Another Location

Airport or City:

Trip Planner

Search our weather history database for the weather conditions in past years. The results will help you decide how hot, cold, wet, or windy it might be!

Date:

Astronomy

Mar. 27, 2013 Rise Set
Actual Time 6:54 AM EDT 7:20 PM EDT
Civil Twilight 6:27 AM EDT 7:47 PM EDT
Nautical Twilight 5:56 AM EDT 8:18 PM EDT
Astronomical Twilight 5:24 AM EDT 8:50 PM EDT
Moon 8:00 PM EDT (3/27) 6:44 AM EDT (3/27)
Length of Visible Light 13h 19m
Length of Day
12h 26m
Full, 100% of the Moon is Illuminated
Mar 27
Full
Apr 3
Last Quarter
Apr 10
New
Apr 18
First Quarter
Apr 25
Full

Hourly Weather History & Observations

Time (EDT) Temp. Windchill Dew Point Humidity Pressure Visibility Wind Dir Wind Speed Gust Speed Precip Events Conditions
12:54 AM 37.9 °F 35.5 °F 28.9 °F 70% 29.96 in 10.0 mi West 3.5 mph - N/A   Scattered Clouds
1:54 AM 39.0 °F 35.7 °F 28.9 °F 67% 29.97 in 10.0 mi West 4.6 mph - N/A   Clear
2:54 AM 39.9 °F 35.8 °F 28.9 °F 65% 29.96 in 10.0 mi West 5.8 mph - N/A   Partly Cloudy
3:54 AM 37.9 °F 34.4 °F 28.9 °F 70% 29.96 in 10.0 mi West 4.6 mph - N/A   Clear
4:54 AM 39.9 °F 35.8 °F 28.9 °F 65% 29.97 in 10.0 mi West 5.8 mph - N/A   Overcast
5:54 AM 39.0 °F 34.8 °F 30.0 °F 70% 29.98 in 10.0 mi West 5.8 mph - N/A   Overcast
6:54 AM 39.0 °F 34.0 °F 30.0 °F 70% 30.00 in 10.0 mi West 6.9 mph - N/A   Overcast
7:54 AM 41.0 °F 37.1 °F 30.0 °F 65% 30.03 in 10.0 mi West 5.8 mph - N/A   Overcast
8:54 AM 44.1 °F 40.1 °F 30.9 °F 60% 30.04 in 10.0 mi West 6.9 mph - N/A   Overcast
9:54 AM 45.0 °F 38.9 °F 30.0 °F 56% 30.05 in 10.0 mi WNW 12.7 mph - N/A   Mostly Cloudy
10:54 AM 48.9 °F - 28.9 °F 46% 30.04 in 10.0 mi NW 15.0 mph - N/A   Clear
11:54 AM 50.0 °F - 28.0 °F 43% 30.04 in 10.0 mi WNW 12.7 mph - N/A   Partly Cloudy
12:54 PM 51.1 °F - 27.0 °F 39% 30.02 in 10.0 mi West 13.8 mph 20.7 mph N/A   Partly Cloudy
1:54 PM 51.1 °F - 26.1 °F 38% 30.01 in 10.0 mi WNW 16.1 mph 23.0 mph N/A   Scattered Clouds
2:54 PM 52.0 °F - 26.1 °F 37% 30.00 in 10.0 mi West 17.3 mph 25.3 mph N/A   Mostly Cloudy
3:54 PM 53.1 °F - 25.0 °F 34% 30.00 in 10.0 mi WNW 13.8 mph 23.0 mph N/A   Mostly Cloudy
4:54 PM 48.9 °F - 28.0 °F 44% 30.01 in 10.0 mi WNW 10.4 mph - 0.00 in   Overcast
5:54 PM 50.0 °F - 26.1 °F 39% 30.02 in 10.0 mi WNW 12.7 mph 28.8 mph N/A   Mostly Cloudy
6:54 PM 48.0 °F - 24.1 °F 39% 30.04 in 10.0 mi WNW 13.8 mph 24.2 mph N/A   Clear
7:54 PM 46.9 °F - 25.0 °F 42% 30.06 in 10.0 mi WNW 9.2 mph 19.6 mph N/A   Clear
8:54 PM 45.0 °F 40.6 °F 26.1 °F 48% 30.07 in 10.0 mi WNW 8.1 mph - N/A   Clear
9:54 PM 42.1 °F 39.2 °F 27.0 °F 55% 30.09 in 10.0 mi West 4.6 mph - N/A   Clear
10:54 PM 37.9 °F 33.5 °F 28.0 °F 68% 30.09 in 10.0 mi WSW 5.8 mph - N/A   Clear
11:54 PM 37.9 °F 34.4 °F 28.0 °F 68% 30.09 in 10.0 mi West 4.6 mph - N/A   Clear